Ono, PA

6:27 PM EDT on August 28, 2016 (GMT -0400)
Muir Army Air Field

Weather History for KMUI - March, 2014

Change the Weather History Date:

Sunday, March 30, 2014

  Actual Average Record
Temperature  
Mean Temperature 40 °F -  
Max Temperature 47 °F 54 °F 86 °F (1998)
Min Temperature 33 °F 37 °F 23 °F (2016)
Degree Days  
Heating Degree Days 24    
Moisture  
Dew Point 39 °F    
Average Humidity 100    
Maximum Humidity 100    
Minimum Humidity 93    
Precipitation  
Precipitation 1.80 in - - ()
Sea Level Pressure  
Sea Level Pressure 29.64 in    
Wind  
Wind Speed 12 mph (North)    
Max Wind Speed 30 mph    
Max Gust Speed 48 mph    
Visibility 7 miles    
Events Rain , Snow    
Averages and records for this station are not official NWS values.
T = Trace of Precipitation, MM = Missing Value Source: NWS Daily Summary

Daily Weather History Graph

Daily Weather History Graph

Search for Another Location

Airport or City:

Trip Planner

Search our weather history database for the weather conditions in past years. The results will help you decide how hot, cold, wet, or windy it might be!

Date:

Astronomy

Mar. 30, 2014 Rise Set
Actual Time 6:53 AM EDT 7:28 PM EDT
Civil Twilight 6:25 AM EDT 7:56 PM EDT
Nautical Twilight 5:53 AM EDT 8:28 PM EDT
Astronomical Twilight 5:20 AM EDT 9:02 PM EDT
Moon 6:37 AM EDT (3/30) 7:39 PM EDT (3/30)
Length of Visible Light 13h 30m
Length of Day
12h 35m
Waning Crescent, 0% of the Moon is Illuminated
Mar 30
Waning Crescent
Mar 30
New
Apr 7
First Quarter
Apr 15
Full
Apr 22
Last Quarter

Hourly Weather History & Observations

Time (EDT) Temp. Windchill Dew Point Humidity Pressure Visibility Wind Dir Wind Speed Gust Speed Precip Events Conditions
12:08 AM 46.4 °F 43.5 °F 46.4 °F 100% 29.63 in 5.0 mi ENE 5.8 mph - N/A   Light Drizzle
12:13 AM 46.4 °F 42.9 °F 46.4 °F 100% 29.63 in 6.0 mi ENE 6.9 mph - N/A   Overcast
12:16 AM 46.4 °F 44.3 °F 46.4 °F 100% 29.62 in 6.0 mi NE 4.6 mph - N/A   Light Drizzle
12:36 AM 46.4 °F 44.3 °F 46.4 °F 100% 29.62 in 8.0 mi NE 4.6 mph - N/A   Light Drizzle
12:43 AM 46.4 °F 42.4 °F 46.4 °F 100% 29.61 in 8.0 mi ENE 8.1 mph - N/A   Overcast
12:58 AM 46.9 °F - 46.9 °F 100% 29.62 in 8.0 mi NE 9.2 mph - 0.02 in   Overcast
1:18 AM 46.4 °F 43.5 °F 46.4 °F 100% 29.60 in 10.0 mi ENE 5.8 mph - N/A   Mostly Cloudy
1:22 AM 46.4 °F 43.5 °F 46.4 °F 100% 29.60 in 10.0 mi ENE 5.8 mph - N/A   Overcast
1:58 AM 46.8 °F - 46.8 °F 100% 29.61 in 10.0 mi NNE 8.1 mph - N/A   Overcast
2:58 AM 47.1 °F - 47.1 °F 100% 29.59 in 10.0 mi ENE 8.1 mph - 0.01 in   Overcast
3:24 AM 48.2 °F - 48.2 °F 100% 29.58 in 10.0 mi East 5.8 mph - N/A   Overcast
3:26 AM 48.2 °F - 48.2 °F 100% 29.58 in 10.0 mi East 5.8 mph - N/A   Overcast
3:50 AM 48.2 °F - 48.2 °F 100% 29.57 in 10.0 mi North 5.8 mph - N/A   Overcast
3:58 AM 47.3 °F - 47.3 °F 100% 29.57 in 9.0 mi North 6.9 mph - N/A   Overcast
4:12 AM 46.4 °F 41.5 °F 46.4 °F 100% 29.55 in 10.0 mi North 10.4 mph - N/A   Overcast
4:14 AM 46.4 °F 41.5 °F 46.4 °F 100% 29.55 in 10.0 mi North 10.4 mph 16.1 mph N/A   Overcast
4:24 AM 46.4 °F 41.1 °F 46.4 °F 100% 29.55 in 10.0 mi NNW 11.5 mph 17.3 mph N/A   Overcast
4:50 AM 46.4 °F 39.8 °F 46.4 °F 100% 29.53 in 10.0 mi North 16.1 mph 21.9 mph N/A   Overcast
4:58 AM 45.5 °F 38.9 °F 45.5 °F 100% 29.56 in 10.0 mi North 15.0 mph 25.3 mph N/A   Overcast
5:20 AM 44.6 °F 36.6 °F 44.6 °F 100% 29.55 in 10.0 mi North 19.6 mph 29.9 mph N/A   Overcast
5:27 AM 42.8 °F 33.8 °F 42.8 °F 100% 29.55 in 10.0 mi NNW 21.9 mph 32.2 mph N/A   Overcast
5:28 AM 42.8 °F 34.8 °F 42.8 °F 100% 29.55 in 10.0 mi NNW 17.3 mph 32.2 mph N/A   Overcast
5:57 AM 42.8 °F 35.1 °F 42.8 °F 100% 29.55 in 10.0 mi North 16.1 mph 25.3 mph N/A Rain Light Rain
5:58 AM 42.8 °F 35.1 °F 42.8 °F 100% 29.57 in 10.0 mi North 16.1 mph 25.3 mph 0.00 in Rain Light Rain
6:10 AM 42.8 °F 36.6 °F 42.8 °F 100% 29.57 in 10.0 mi North 11.5 mph 29.9 mph N/A Rain Light Rain
6:26 AM 42.8 °F 37.5 °F 42.8 °F 100% 29.58 in 9.0 mi NNE 9.2 mph 17.3 mph N/A Rain Rain
6:32 AM 41.0 °F 33.1 °F 41.0 °F 100% 29.57 in 8.0 mi NNE 15.0 mph 24.2 mph N/A Rain Light Rain
6:38 AM 41.0 °F 34.3 °F 41.0 °F 100% 29.57 in 10.0 mi North 11.5 mph 31.1 mph N/A Rain Light Rain
6:40 AM 41.0 °F 33.9 °F 41.0 °F 100% 29.57 in 10.0 mi North 12.7 mph 31.1 mph N/A Rain Light Rain
6:42 AM 41.0 °F 33.5 °F 41.0 °F 100% 29.57 in 10.0 mi North 13.8 mph 31.1 mph N/A Rain Light Rain
6:58 AM 41.7 °F 35.2 °F 41.7 °F 100% 29.59 in 10.0 mi North 11.5 mph 25.3 mph 0.05 in Rain Light Rain
7:01 AM 41.0 °F 34.3 °F 41.0 °F 100% 29.57 in 10.0 mi North 11.5 mph 25.3 mph N/A   Overcast
7:43 AM 41.0 °F 39.0 °F 41.0 °F 100% 29.60 in 10.0 mi Variable 3.5 mph 18.4 mph N/A   Overcast
7:58 AM 41.2 °F 35.0 °F 41.2 °F 100% 29.62 in 10.0 mi North 10.4 mph 18.4 mph 0.00 in   Overcast
7:59 AM 41.0 °F 36.4 °F 41.0 °F 100% 29.60 in 10.0 mi NNE 6.9 mph 18.4 mph N/A   Overcast
8:39 AM 39.2 °F 35.0 °F 39.2 °F 100% 29.62 in 10.0 mi Variable 5.8 mph - N/A   Overcast
8:58 AM 39.9 °F 33.9 °F 39.9 °F 100% 29.64 in 10.0 mi NNE 9.2 mph 24.2 mph 0.00 in   Overcast
9:05 AM 39.2 °F 31.2 °F 39.2 °F 100% 29.60 in 10.0 mi NNW 13.8 mph 29.9 mph N/A   Overcast
9:09 AM 39.2 °F 32.5 °F 39.2 °F 100% 29.61 in 10.0 mi North 10.4 mph 29.9 mph N/A Rain Light Rain
9:19 AM 39.2 °F 31.2 °F 39.2 °F 100% 29.61 in 10.0 mi North 13.8 mph 21.9 mph N/A Rain Light Rain
9:21 AM 39.2 °F 30.2 °F 39.2 °F 100% 29.60 in 10.0 mi NNE 17.3 mph 29.9 mph N/A Rain Light Rain
9:58 AM 39.4 °F 31.4 °F 39.4 °F 100% 29.62 in 10.0 mi North 13.8 mph 24.2 mph 0.02 in Rain Light Rain
10:26 AM 39.2 °F 30.8 °F 39.2 °F 100% 29.62 in 10.0 mi NNW 15.0 mph 28.8 mph N/A Rain Light Rain
10:40 AM 39.2 °F 28.5 °F 39.2 °F 100% 29.60 in 9.0 mi NNW 24.2 mph 43.7 mph N/A Rain Light Rain
10:58 AM 38.8 °F 28.5 °F 38.8 °F 100% 29.62 in 10.0 mi North 21.9 mph 34.5 mph 0.05 in Rain Rain
11:58 AM 37.0 °F 26.4 °F 36.9 °F 99% 29.61 in 10.0 mi NNW 20.7 mph 36.8 mph 0.06 in Rain Light Rain
12:53 PM 37.4 °F 28.2 °F 37.4 °F 100% 29.57 in 10.0 mi NNE 16.1 mph 32.2 mph N/A Rain Light Rain
12:58 PM 36.9 °F 27.5 °F 36.5 °F 99% 29.59 in 10.0 mi North 16.1 mph 32.2 mph 0.10 in Rain Light Rain
1:14 PM 37.4 °F 34.9 °F 35.6 °F 93% 29.60 in 7.0 mi Variable 3.5 mph 23.0 mph N/A Rain Rain
1:58 PM 36.5 °F 26.7 °F 36.5 °F 100% 29.64 in 4.0 mi NW 17.3 mph 32.2 mph 0.17 in Rain Heavy Rain
2:04 PM 35.6 °F 26.6 °F 35.6 °F 100% 29.62 in 4.0 mi North 13.8 mph 32.2 mph N/A Rain Heavy Rain
2:10 PM 35.6 °F 26.6 °F 35.6 °F 100% 29.62 in 4.0 mi NNW 13.8 mph 32.2 mph N/A Rain Heavy Rain
2:58 PM 36.1 °F 23.9 °F 36.1 °F 100% 29.59 in 3.0 mi NNW 26.5 mph 36.8 mph 0.35 in   Overcast
3:04 PM 35.6 °F 23.4 °F 35.6 °F 100% 29.56 in 2.5 mi NNW 25.3 mph 36.8 mph N/A Rain Heavy Rain
3:06 PM 35.6 °F 23.2 °F 35.6 °F 100% 29.56 in 3.0 mi NNW 26.5 mph 36.8 mph N/A Rain Light Rain
3:12 PM 35.6 °F 24.8 °F 35.6 °F 100% 29.56 in 2.5 mi NNW 19.6 mph 36.8 mph N/A   Overcast
3:19 PM 35.6 °F 23.0 °F 35.6 °F 100% 29.56 in 3.0 mi North 27.6 mph 43.7 mph N/A   Overcast
3:24 PM 37.4 °F 25.0 °F 37.4 °F 100% 29.55 in 3.0 mi NNW 29.9 mph 48.3 mph N/A   Overcast
3:58 PM 36.9 °F 28.2 °F 36.9 °F 100% 29.60 in 7.0 mi NNW 13.8 mph 33.4 mph 0.31 in Rain Rain
4:22 PM 37.4 °F 28.2 °F 37.4 °F 100% 29.61 in 10.0 mi NNW 16.1 mph 33.4 mph N/A Rain Light Rain
4:28 PM 35.6 °F 24.8 °F 35.6 °F 100% 29.61 in 10.0 mi NNW 19.6 mph 36.8 mph N/A Rain Light Rain
4:32 PM 35.6 °F 24.5 °F 35.6 °F 100% 29.61 in 10.0 mi NNW 20.7 mph 36.8 mph N/A Rain Light Rain
4:58 PM 36.1 °F 25.0 °F 36.1 °F 100% 29.64 in 8.0 mi NNW 21.9 mph 32.2 mph 0.03 in Rain Light Rain
5:22 PM 35.6 °F 26.2 °F 35.6 °F 100% 29.63 in 10.0 mi North 15.0 mph 33.4 mph N/A Rain Light Rain
5:28 PM 35.6 °F 25.9 °F 35.6 °F 100% 29.64 in 10.0 mi NNW 16.1 mph 27.6 mph N/A Rain Light Rain
5:50 PM 35.6 °F 28.0 °F 35.6 °F 100% 29.65 in 8.0 mi NNW 10.4 mph 33.4 mph N/A Rain Light Rain
5:58 PM 35.6 °F 25.5 °F 35.6 °F 100% 29.67 in 5.0 mi North 17.3 mph 26.5 mph 0.03 in Rain Rain
5:59 PM 35.6 °F 24.8 °F 35.6 °F 100% 29.64 in 5.0 mi North 19.6 mph 26.5 mph N/A Rain Light Freezing Rain
6:07 PM 35.6 °F 26.2 °F 35.6 °F 100% 29.65 in 5.0 mi NNW 15.0 mph 27.6 mph N/A Rain Light Freezing Rain
6:09 PM 35.6 °F 26.2 °F 35.6 °F 100% 29.65 in 5.0 mi North 15.0 mph 27.6 mph N/A Rain Light Freezing Rain
6:33 PM 35.6 °F 26.2 °F 35.6 °F 100% 29.67 in 5.0 mi North 15.0 mph 31.1 mph N/A Rain Rain
6:41 PM 35.6 °F 25.9 °F 35.6 °F 100% 29.68 in 4.0 mi NW 16.1 mph 29.9 mph N/A Rain Rain
6:45 PM 35.6 °F 25.5 °F 35.6 °F 100% 29.69 in 4.0 mi North 17.3 mph 29.9 mph N/A Rain Heavy Rain
6:53 PM 35.6 °F 30.7 °F 35.6 °F 100% 29.69 in 2.5 mi NE 5.8 mph 26.5 mph N/A Rain Heavy Rain
6:58 PM 35.1 °F 27.4 °F 35.1 °F 100% 29.71 in 2.5 mi NNE 10.4 mph 23.0 mph 0.10 in Rain Light Rain
7:08 PM 35.6 °F 28.6 °F 35.6 °F 100% 29.71 in 3.0 mi North 9.2 mph 18.4 mph N/A Rain Light Rain
7:22 PM 35.6 °F 26.6 °F 35.6 °F 100% 29.72 in 2.5 mi North 13.8 mph 41.4 mph N/A Rain Light Rain
7:28 PM 35.6 °F 27.1 °F 35.6 °F 100% 29.72 in 2.0 mi NNE 12.7 mph 41.4 mph N/A   Overcast
7:36 PM 33.8 °F 24.8 °F 33.8 °F 100% 29.73 in 2.5 mi NNW 12.7 mph 23.0 mph N/A   Overcast
7:38 PM 33.8 °F 25.8 °F 33.8 °F 100% 29.73 in 3.0 mi NNW 10.4 mph 19.6 mph N/A   Overcast
7:58 PM 34.7 °F 24.7 °F 34.7 °F 100% 29.76 in 3.0 mi North 16.1 mph 35.7 mph 0.14 in   Overcast
8:24 PM 35.6 °F 25.9 °F 35.6 °F 100% 29.75 in 2.5 mi North 16.1 mph 27.6 mph N/A   Overcast
8:28 PM 33.8 °F 23.9 °F 33.8 °F 100% 29.75 in 2.5 mi NNW 15.0 mph 27.6 mph N/A   Overcast
8:32 PM 33.8 °F 20.8 °F 33.8 °F 100% 29.76 in 3.0 mi North 26.5 mph 35.7 mph N/A   Overcast
8:33 PM 33.8 °F 22.5 °F 33.8 °F 100% 29.76 in 3.0 mi North 19.6 mph 35.7 mph N/A Rain Light Freezing Rain
8:34 PM 33.8 °F 24.8 °F 33.8 °F 100% 29.76 in 3.0 mi North 12.7 mph 35.7 mph N/A Snow Light Snow
8:40 PM 33.8 °F 24.8 °F 33.8 °F 100% 29.76 in 2.5 mi North 12.7 mph 35.7 mph N/A Snow Light Snow
8:45 PM 33.8 °F 25.3 °F 33.8 °F 100% 29.76 in 2.5 mi NNW 11.5 mph 24.2 mph N/A Snow Light Snow
8:47 PM 33.8 °F 25.8 °F 33.8 °F 100% 29.76 in 3.0 mi North 10.4 mph 24.2 mph N/A Snow Light Snow
8:57 PM 35.6 °F 25.2 °F 35.6 °F 100% 29.76 in 4.0 mi North 18.4 mph 25.3 mph N/A Snow Light Snow
8:58 PM 35.6 °F 24.5 °F 35.6 °F 100% 29.78 in 5.0 mi North 20.7 mph 28.8 mph 0.21 in Rain Light Freezing Rain
8:59 PM 35.6 °F 25.2 °F 35.6 °F 100% 29.76 in 5.0 mi North 18.4 mph 28.8 mph N/A   Overcast
9:03 PM 35.6 °F 28.0 °F 35.6 °F 100% 29.77 in 6.0 mi North 10.4 mph 28.8 mph N/A Snow Light Snow
9:58 PM 35.2 °F 23.5 °F 35.2 °F 100% 29.79 in 8.0 mi NNW 23.0 mph 33.4 mph 0.10 in   Overcast
10:14 PM 35.6 °F 26.2 °F 35.6 °F 100% 29.79 in 10.0 mi NNW 15.0 mph 25.3 mph N/A   Overcast
10:25 PM 35.6 °F 27.1 °F 35.6 °F 100% 29.79 in 9.0 mi North 12.7 mph 28.8 mph N/A Snow Light Snow
10:58 PM 35.6 °F 25.9 °F 35.6 °F 100% 29.81 in 10.0 mi NNW 16.1 mph 29.9 mph 0.04 in Snow Light Snow
11:22 PM 35.6 °F 24.5 °F 35.6 °F 100% 29.79 in 10.0 mi NNW 20.7 mph 28.8 mph N/A Rain Light Rain
11:56 PM 35.6 °F 25.9 °F 35.6 °F 100% 29.81 in 10.0 mi North 16.1 mph 27.6 mph N/A Rain Light Rain
11:58 PM 35.6 °F 25.9 °F 35.6 °F 100% 29.83 in 10.0 mi North 16.1 mph 27.6 mph 0.01 in Rain Light Rain